Hourly Data Report for September 28, 2003

TORONTO CITY
ONTARIO

43°40'00.000" N
79°24'00.000" W
112.50 m
6158355
71508
XTO

Download Data

Hourly Data (September 2003)
Hourly Data Report for September 28, 2003
TIME
LST
Temp Definition
°C
Dew Point Definition
°C
Rel Hum Definition
%
Precip. Amount Definition
mm

Wind Dir Definition
10's deg

Wind Spd Definition
km/h
Visibility Definition
km
Stn Press Definition
kPa
Hmdx Definition


Wind Chill Definition


Weather Definition


00:00 12.7 10.2 85   LegendMM LegendMM LegendMM 99.35     LegendNANA
01:00 11.8 10.0 89   LegendMM LegendMM LegendMM 99.35     LegendNANA
02:00 13.1 9.4 78   LegendMM LegendMM LegendMM 99.35     LegendNANA
03:00 12.5 9.1 80   LegendMM LegendMM LegendMM 99.26     LegendNANA
04:00 10.7 8.7 87   LegendMM LegendMM LegendMM 99.28     LegendNANA
05:00 11.5 9.3 86   LegendMM LegendMM LegendMM 99.34     LegendNANA
06:00 11.6 8.2 80   LegendMM LegendMM LegendMM 99.35     LegendNANA
07:00 11.1 8.1 82   LegendMM LegendMM LegendMM 99.38     LegendNANA
08:00 12.4 9.3 81   LegendMM LegendMM LegendMM 99.35     LegendNANA
09:00 14.0 9.9 76   LegendMM LegendMM LegendMM 99.37     LegendNANA
10:00 15.0 8.5 65   LegendMM LegendMM LegendMM 99.35     LegendNANA
11:00 17.2 9.3 60   LegendMM LegendMM LegendMM 99.34     LegendNANA
12:00 17.9 9.6 58   LegendMM LegendMM LegendMM 99.31     LegendNANA
13:00 16.1 9.1 63   LegendMM LegendMM LegendMM 99.29     LegendNANA
14:00 16.1 7.6 57   LegendMM LegendMM LegendMM 99.31     LegendNANA
15:00 15.7 8.2 61   LegendMM LegendMM LegendMM 99.31     LegendNANA
16:00 14.8 9.6 71   LegendMM LegendMM LegendMM 99.32     LegendNANA
17:00 15.0 8.5 65   LegendMM LegendMM LegendMM 99.34     LegendNANA
18:00 14.9 8.2 64   LegendMM LegendMM LegendMM 99.40     LegendNANA
19:00 14.4 7.8 65   LegendMM LegendMM LegendMM 99.41     LegendNANA
20:00 14.2 8.2 67   LegendMM LegendMM LegendMM 99.47     LegendNANA
21:00 13.2 7.9 70   LegendMM LegendMM LegendMM 99.48     LegendNANA
22:00 12.3 7.9 74   LegendMM LegendMM LegendMM 99.48     LegendNANA
23:00 11.5 7.8 78   LegendMM LegendMM LegendMM 99.50     LegendNANA

Notes on Data Quality.

Legend

  • E = Estimated
  • M = Missing
  • NA = Not Available*
  • [empty] = Indicates an unobserved value
Date modified: